Location: All Nations United Methodist Church
(33.0215°N, 96.7483°W)
Time: 15:41:26
(UTC+00:00)

MOS 1-B - Pass Details

Date: 24 January 2021
Orbit: 905 x 913 km, 99.4° (Epoch: 06 March)

Event Time Altitude Azimuth Distance (km) Brightness Sun altitude
Rises 12:49:51 0° 9° (N) 3,535 7.3 -8.1°
Reaches altitude 10° 12:52:17 10° 7° (N) 2,590 6.6 -7.6°
Maximum altitude 12:57:59 64° 287° (WNW) 999 4.4 -6.5°
Drops below altitude 10° 13:03:39 10° 207° (SSW) 2,577 6.7 -5.4°
Sets 13:06:04 0° 204° (SSW) 3,516 7.4 -4.9°
